Race Results for
Bicycles Plus Early Bird Criterium
Folsom, CA
(Event Information)
View By:
Criterium on 02/12/2011

Note: Ranking points are NOT upgrade points. An explanation of ranking points can be found here.


Men - Cat 1/2/3/4/5 - Junior - 10-18

 Place Points NameCity, StateTime USAC #BibTeam
1514.23Tucker Huffman   Elk Grove, CA00:00.0 300411  973 
2Elena VELEZ   00:00.0  978 
3533.17Grover Rozek   Folsom00:00.0 331894  979 Team Bicycles Plus/Sierra Nevada
4542.64Nicholas DOLLEY   El Dorado Hills, CA00:00.0 315710  971 Team Bicycles Plus/Sierra Neva
5552.11Ryan Joy   Granite Bay, CA00:00.0 335440  974 Team Bicycles Plus/Sierra Neva
6561.58Kyle Fiori   Folsom, CA00:00.0 303705  975 Davis Bike Club Race Team
7571.05Thomas Sevey   Granite Bay, CA00:00.0 305917  977 Team Bicycles Plus/Sierra Neva
8580.52Decker Krogh   Nevada City, CA00:00.0 335748  980 
9589.99Samuel Hill   Woodland, CA00:00.0 318306  976 Davis Bike Club Race Team
DNPEuan CLARK   00:00.0  970 
DNPGarrett Hankins   Carmichael, CA00:00.0 298571  972 Team Bicycles Plus/Sierra Neva

Men - Cat3/4 - Master - 30-99

 Place Points NameCity, StateTime USAC #BibTeam
1185.32Kashy Ghazzagh   Santa Rosa, CA00:00.0 295719  23 Red Peloton
2190.02Michael Claudio   West Sacramento, CA00:00.0 248052  10 Davis Bike Club
3194.72Nathan Shaw   Castro Valley, CA00:00.0 196249  60 Fusion Sport USA
4199.42Monte Boyle   Simms, MT00:00.0 218669  Team Clover
5204.12Grant Russell (1 - Cat4)   Cool, CA00:00.0 218611  58 Sacramento Golden Wheelmen
6208.82Brandon Meadows   Sacramento, CA00:00.0 250736  43 Rio Strada Racing
7213.52Bob McCamish   Roseville, CA00:00.0 285998  39 Rio Strada Racing
8218.22Joseph Staron   Sacramento, CA00:00.0 132859  61 
9222.92Scott Peifer   Granite Bay, CA00:00.0 265877  52 Mercedes Benz/Folsom Bike
10227.62Giovanni Campisi   Santa Rosa, CA00:00.0 256021  Colavita Racing
11232.32Thomas Dillon   Los Altos Hills, CA00:00.0 50011  80 Peninsula Velo/Pomodoro
12237.02Jason Arinno   Elk Grove, CA00:00.0 260928  Kinetic Cycles/GBI
13241.72Robert Napieralski   Springville, CA00:00.0 271499  47 Sacramento Golden Wheelmen
14246.42Gregg Lehman   Vacaville, CA00:00.0 250959  33 Precision Stone Racing
15251.12Ramsey Etchison   Truckee, CA00:00.0 251486  17 Marc Pro - Strava
16255.82Leon Iannarelli   Vacaville, CA00:00.0 49838  87 Precision Stone Racing
17260.52Nick McGowan   Rohnert Park, CA00:00.0 303653  41 Echelon Gran Fondoteam
18265.22Kevin Tufts   Cameron Park, CA00:00.0 243434  65 Bicycle Planet
19269.92R Todd Marshall   Sacramento, CA00:00.0 43936  38 Kinetic Cycles/GBI
20274.62Francis Goldsberry (2 - Cat4)   Sacramento, CA00:00.0 132927  24 Sacramento Golden Wheelmen
21279.32Raymond Rodriguez   Santa Rosa, CA00:00.0 93483  56 2wheel cycling
22284.02Donald Eipper   El Dorado Hills, CA00:00.0 248941  14 Team Revolutions
23288.72Oliver Weiss   Roseville, CA00:00.0 79603  68 Rio Strada Racing
24293.42Eric Zeigler   Auburn, CA00:00.0 60207  73 Victory Velo
25298.12Brian Agnell   Sacramento, CA00:00.0 180563  84 Rio Strada Racing
26302.82Robb Wolf   Reno, NV00:00.0 257141  71 Kinetic Cycles / GBI
27307.52Robin McKinney   Lincoln, CA00:00.0 276168  42 VictoryVelo
28312.22Ken Todd   Folsom, CA00:00.0 174881  63 Team Bicycles Plus/Sierra Neva
29316.92Daniel Lee   Petaluma, CA00:00.0 113898  32 windsor bicycle center
30321.62Richard Tabuso   Roseville, CA00:00.0 274439  62 Rio Strada
31326.32Rann Valdez   Pleasant Hill, CA00:00.0 142965  67 Stone Racing
32331.02Kevin Willitts   S Lake Tahoe, CA00:00.0 192774  70 Team Bicycles Plus/Sierra Neva
33335.72Matt Tufts   Placerville, CA00:00.0 240212  66 Bicycle Planet
34340.42James Maltbie   Brentwood , CA00:00.0 271086  75 Contra Costa Cycling Club
35345.12Karl Wurzbach   Fairfield, CA00:00.0 260329  72 Davis Bike Club
37349.82Dwayne Halterman   Napa, CA00:00.0 175758  27 Portocork Round Pond Racing
38354.52Jeff Watson   Elk Grove, CA00:00.0 293136  85 Team Bicycles Plus/Sierra Neva
39359.22Jack Arney   Lincoln, CA00:00.0 301427  77 Folsom Bike
40363.92Gregg Roh   Sacramento, CA00:00.0 58416  57 Sacramento Golden Wheelmen
41368.62Greg Fales   Orangevale, CA00:00.0 275788  19 Team Bicycles Plus/Sierra Neva
42373.32Curt MILLS   Gold River, CA00:00.0 299412  76 
43378.02Michael Boehme   Windsor, CA00:00.0 252576  Colavita Racing-Norcal
44382.72Nathanael Dunn   Fair Oaks, CA00:00.0 290357  13 Rio Strada Racing
45387.42Jeff Gordon   Boynton Beach, FL00:00.0 50995  25 Kryki Sports - Audi
46392.12Dennis Baker   Sacramento, CA00:00.0 255279  Sacramento Golden Wheelmen
47396.82Steve Bowman (3 - Cat4)   Granite Bay, CA00:00.0 303496  79 Victory Velo
48401.52Johannes Kratz   Cambridge, MA00:00.0 286729  31 Metromint Cycling
49406.22Jeffrey Griffo   Homewood, CA00:00.0 180137  26 Truckee Bicycle Team
50410.92Derek Novaes   West Sacramento, CA00:00.0 274484  48 Rio Strada Racing
51415.62Chad Richards   Antelope, CA00:00.0 305850  55 
52420.32Frank Lunceford Sr   El Dorado Hills, CA00:00.0 273343  35 Bicycle Planet
53425.02Mark Fiori   Folsom, CA00:00.0 112253  21 Davis Bike Club
54429.72Craig Dolley   El Dorado Hills, CA00:00.0 158073  12 Team Bicycles Plus/Sierra Neva
55434.42Mike Brunetti   Escalon, CA00:00.0 273437  NA
56439.12Aaron Marchand   Sacramento, CA00:00.0 289169  37 Health is Wealth
57443.82Gabriel Garroni (4 - Cat4)   Mc Kinney, TX00:00.0 280689  22 Rio Strada
58448.52Keith Williams   Stockton, CA00:00.0 158389  82 Williams Cycling
59453.22James Elder   Carmaichael, CA00:00.0 271765  15 Rio Strada Racing
60457.92Brian Pantiga   Folsom, CA00:00.0 61633  51 Bicycle Planet
61462.62Sean Odom   Carmichael, CA00:00.0 223061  49 Rio Strada Racing
62467.32Philip Blay   Folsom, CA00:00.0 274756  78 Folsom Bike
63472.02Tyron Hooper   San Francisco, CA00:00.0 251276  83 Fusion Sport USA
64476.72Chris Parod   Mather, CA00:00.0 270992  81 Team Bicycles Plus/Sierra Neva
65481.42Greg Tripoli   Hanford, CA00:00.0 281420  64 Momentum Racing
66486.12Michael Painter   Chico Ca00:00.0 289184  50 Chico Corsa Cycling Club
67490.82Aaron Lombardi   Elk Grove, CA00:00.0 258261  34 Rio Strada Racing
68495.52Steve Ball (5 - Cat4)   Napa, CA00:00.0 59338  Portocork Round Pond Racing
69500.22Roger Hogan   Fresno, CA00:00.0 285192  29 Momentum Racing California
70504.92Christopher Kolm   Moraga, CA00:00.0 254578  30 Taleo Racing
71UNKNOWN RIDER   00:00.0  98 -------
72514.32ron faulk   Placerville, CA00:00.0 254588  20 NA
73519.02Star Stevenson   Santa Rosa, CA00:00.0 236074  74 Red Peloton
74523.72Emilio Alvarez (6 - Cat4)   Rutherford, CA00:00.0 306712  portocork round pond racing
DNPJerohn BRUNSON   Santa Rosa, CA00:00.0 220488  Two Wheel Cycling
DNPJeff Dillon   Folsom, CA00:00.0 9524  11 Bicycle Planet
DNPMatthew Esselstrom   Modesto, CA00:00.0 277510  16 Fun Sport Bikes Cycling Team
DNPKen Hill   Woodland, CA00:00.0 274292  28 Davis Bike Club
DNPAngus MacDonald   Vacaville, CA00:00.0 140048  36 Precision BicyclesTeam Precis
DNPCharles McCann (Cat4)   Folsom, CA00:00.0 220709  40 Bicycle Planet
DNPKenneth Mejica   San Francisco, CA00:00.0 254913  44 Team Bicycles Plus Sierra Neva
DNPPeter Meyer   Mount Aukum, CA00:00.0 219925  45 Bicycle Planet
DNPDustin Mowe (Cat4)   Napa, CA00:00.0 304199  46 Portocork Round Pond Racing
DNPJonathan Pettengill   Reno, NV00:00.0 287637  53 Audi Cycling Team
DNPDaniel Pollard   Roseville, CA00:00.0 269166  54 Team Mad Cat
DNPNabil Samaan   Fair Oaks, CA00:00.0 177518  59 Kinetic Cycles/gbi
DNPMichael White   Folsom, CA00:00.0 299962  69 Team Bicycles Plus/Sierra Neva
DNPStephen Synhorst   Sacramento, CA00:00.0 234097  86 Sacramento Golden Wheelmen
DNPRyan Ettl   Folsom, CA00:00.0 252994  18 Bicycle Planet

Men - Cat1/2/3 - Master - 35-99

 Place Points NameCity, StateTime USAC #BibTeam
1142.55Jeff Angermann   Reno, NV00:00.0 1774  259 SAFEWAY/PureRed Creative/Bicyc
2145.62Scott Fonseca   Fair Oaks, CA00:00.0 204715  208 Zenn Racing Team
3148.69Dustin Diede   Napa, CA00:00.0 206844  235 Precision Stone Racing
4151.76Michael Hernandez   Oakland, CA00:00.0 136641  211 Great Basin Imaging/Kinetic Cy
5154.83David Albrecht   Chico, CA00:00.0 47091  201 Chico Corsa Cycling Team
6Greg BETTONTE   00:00.0  253 
7160.97Vincent Gee (1 - Cat2)   Sacramento, CA00:00.0 13001  209 Team Bicycles Plus/Sierra Neva
8164.04John Armer   El Dorado Hills, CA00:00.0 93144  203 Team Bicycles Plus/Sierra Neva
9167.11Robert Winder (2 - Cat2)   Lafayette, CA00:00.0 220285  231 HDR p/b Lombardi Sports
10170.18Lee Shuemake   Sonora, CA00:00.0 197770  249 Topsport
11173.25Brian Choi   Folsom, CA00:00.0 52849  206 STUZIO
12176.32Chad DeMasi (3 - Cat2)   Davis, CA00:00.0 158049  207 Rocknasium
13179.39Jonathan Laine   Truckee, CA00:00.0 256153  233 SAFEWAY/PureRed Creative/Bicyc
14182.46Patrick Tafoya   Redwood City, CA00:00.0 34910  228 SAFEWAY/PureRed Creative/Bicyc
15185.53Scott Peifer   Granite Bay, CA00:00.0 265877  221 Mercedes Benz/Folsom Bike
16188.60Dave Kause   Sacramento, CA00:00.0 175157  216 BELGIUM BIKE / QUICKSTEP NORTH
17191.67Dan Martin   Pleasanton, CA00:00.0 179386  219 SAFEWAY/PureRed Creative/Bicyc
18194.74Gregory Gambetta   Sacramento, CA00:00.0 212916  255 Folsom Bike
19197.81Aaron Hunter   Santa Cruz, CA00:00.0 215194  248 Kinetic Cycles/GBI
20200.88Rich Mader   Sacramento, CA00:00.0 222996  218 Rocknasium
21203.95Jason Buckley   Sonoma, CA00:00.0 274029  239 Colavita Racing
22207.02Givargis Betoshana (1 - Cat3)   Ripon, CA00:00.0 55276  238 Fun Sport Bikes Cycling Team
23210.09Jason Grefrath   Sacramento, CA00:00.0 281883  210 Taleo Racing
24213.16Stephen Janke (2 - Cat3)   Davis, CA00:00.0 188217  250 Rocknasium
25216.23Steve Offerman   Sacramento, CA00:00.0 81992  220 Rio Strada Racing
26219.30Matthew Ream (4 - Cat2)   Verdi, NV00:00.0 211441  223 Great Basin Imaging | Kinetic
27222.37Patrick McClurg   Citrus Heights, CA00:00.0 48984  257 Mercedes Benz/Folsom Bike
28225.44Mark Sasser   Fresno, CA00:00.0 31332  225 SAFEWAY/PureRed Creative/Bicyc
29228.51Stephen McCaw   Sacramento, CA00:00.0 62322  258 Rocknasium
30231.58Brian Hitchman   Folsom, CA00:00.0 48419  214 Team Bicycles Plus/Sierra Neva
31234.65Gregory Anderson   Vacaville, CA00:00.0 90802  247 Morgan Stanley Cycling Team
32237.72Fred Ramos   Davis, CA00:00.0 195221  222 Rocknasium
33240.79Mitch Boehs   Livingston, CA00:00.0 237309  236 Sierra Pacific Racing
34243.86Daniel Bryant   Carmichael, CA00:00.0 195929  256 Folsom Bike
35246.93Rodney Spradlin   El Dorado Hills, CA00:00.0 122266  226 Rocknasium
36UNKNOWN RIDER   00:00.0  ??? -------
37253.07Lance Newey   Fair Oaks, CA00:00.0 202161  261 Team Bicycles Plus/Sierra Neva
38UNKNOWN RIDER   00:00.0  ??? -------
40259.21Spencer Kenner   Davis, CA00:00.0 86651  232 Rocknasium
41262.28Joseph Oliveri   Grass Valley, CA00:00.0 26674  246 Rocknasium
42265.35Matt Connolly (5 - Cat2)   Sacramento, CA00:00.0 302694  244 Rio Strada Racing
43268.42Jesse Moore   Sacramento, CA00:00.0 204739  254 California Giant Berry Farms/S
44271.49Matthew Rozek (6 - Cat2)   Folsom, CA00:00.0 154826  234 Team Bicycles Plus/Sierra Neva
45274.56James Herzman   Truckee, CA00:00.0 207922  212 Great Basin Imaging/Kinetic Cy
46277.63Thomas Dillon   Los Altos Hills, CA00:00.0 50011  240 Peninsula Velo/Pomodoro
47280.70Gerald Roberts   Sacramento, CA00:00.0 30073  251 Team Bicycles Plus
48283.77Tony Reid (3 - Cat3)   Sacramento, CA00:00.0 29458  224 SAFEWAY/Bicycles Plus/PureRed
49286.84Rob Cady   Elk Grove, CA00:00.0 49774  205 Rocknasium
50289.91Andrew Lancashire (7 - Cat2)   Elk Grove, CA00:00.0 218734  252 Great Basin Imaging/Kinetic Cy
51292.98Jonathan Eropkin   Fresno, CA00:00.0 197844  245 SAFEWAY/PureRed Creative/Bicyc
52296.05Peter Allen   Fair Oaks, CA00:00.0 46996  202 SAFEWAY/PureRed Creative/Bicyc
DNPMichael Brown   Gold River, CA00:00.0 141483  260 Great Basin Imaging Cycling Te
DNPStephen Synhorst   Sacramento, CA00:00.0 234097  243 Sacramento Golden Wheelmen
DNPDouglas Gonda   Truckee, CA00:00.0 13594  242 Team Bicycles Plus/Sierra Neva
DNPJess Raphael   Napa, CA00:00.0 221460  241 SAFEWAY/PureRed Creative/Bicyc
DNPBob Delp   Folsom, CA00:00.0 9138  237 Folsom Bike
DNPSteve Thomsen   Reno, NV00:00.0 245436  230 Great Basin Imaging Cycling Te
DNPNick Theobald   Burlingame, CA00:00.0 35297  229 SAFEWAY/PureRed Creative/Bicyc
DNPJoseph Staron   Sacramento, CA00:00.0 132859  227 
DNPKayden Kelly (Cat3)   Auburn, CA00:00.0 101369  217 Rocknasium
DNPAllen Jackson   Sonora, CA00:00.0 260263  215 Wells Fargo Racing Team
DNPJens Hillen   Orinda, CA00:00.0 226525  213 SAFEWAY/PureRed Creative/Bicyc
DNPJason Brown   Lodi, CA00:00.0 53115  204 Great Basin Imaging/Kinetic Cy

Men - Cat1/2/3 - Master - 45-99

 Place Points NameCity, StateTime USAC #BibTeam
1134.64Michael O'Rourke   Auburn, CA00:00.0 204496  386 SAFEWAY/PureRed Creative/Bicyc
2143.87Gregg Betonte   Truckee, CA00:00.0 255414  362 SAFEWAY/PureRed Creative/Bicyc
3153.10Joel Robertson   San Leandro, CA00:00.0 220316  390 Webcor/Alto Velo
4162.33Ken Hill   Woodland, CA00:00.0 274292  368 Davis Bike Club
5171.56Jens Hillen   Orinda, CA00:00.0 226525  369 SAFEWAY/PureRed Creative/Bicyc
6180.79Jonathan Laine   Truckee, CA00:00.0 256153  388 SAFEWAY/PureRed Creative/Bicyc
7190.02Vincent Gee (1 - Cat2)   Sacramento, CA00:00.0 13001  365 Team Bicycles Plus/Sierra Neva
8199.25Andre Tenthorey   Granite Bay, CA00:00.0 76561  391 Sacramento Golden Wheelmen
9208.48Rodney Spradlin   El Dorado Hills, CA00:00.0 122266  377 Rocknasium
10217.71David Acri   San Francisco00:00.0 233803  363 Audi
11226.94Nabil Samaan   Fair Oaks, CA00:00.0 177518  376 Kinetic Cycles/gbi
12236.17Kevin Willitts   S Lake Tahoe, CA00:00.0 192774  380 Team Bicycles Plus/Sierra Neva
13245.40Keith Williams   Stockton, CA00:00.0 158389  381 
14254.63Peter Allen   Fair Oaks, CA00:00.0 46996  361 SAFEWAY/PureRed Creative/Bicyc
15263.86Douglas Gonda   Truckee, CA00:00.0 13594  366 Team Bicycles Plus/Sierra Neva
16273.09Michael Brown   Gold River, CA00:00.0 141483  392 Great Basin Imaging Cycling Te
17282.32Joseph Oliveri   Grass Valley, CA00:00.0 26674  372 Rocknasium
18291.55Nathan Timms (1 - Cat3)   Sacramento, CA00:00.0 216479  389 Team Bicycles Plus/Sierra Neva
19300.78Tony Reid (2 - Cat3)   Sacramento, CA00:00.0 29458  374 SAFEWAY/Bicycles Plus/PureRed
20310.01Robert Napieralski   Springville, CA00:00.0 271499  371 Sacramento Golden Wheelmen
21319.24Peter Krogh   Nevada City, CA00:00.0 177339  379 SHO-AIR/ SERT
22328.47Brian Hitchman   Folsom, CA00:00.0 48419  370 Team Bicycles Plus/Sierra Neva
23337.70Spencer Kenner   Davis, CA00:00.0 86651  385 Rocknasium
24346.93James Blankenship   Rescue, CA00:00.0 53651  387 Unattached
25356.16R Todd Marshall   Sacramento, CA00:00.0 43936  384 Kinetic Cycles/GBI
26365.39John Hancock   Sacramento, CA00:00.0 195844  382 Team Bicycles Plus/Sierra Neva
27374.62Gerald Roberts   Sacramento, CA00:00.0 30073  375 Team Bicycles Plus/Sierra Neva
28383.85Karl Wurzbach   Fairfield, CA00:00.0 260329  378 Davis Bike Club
29393.08Jeffrey Griffo   Homewood, CA00:00.0 180137  367 Truckee Bicycle Team
DNPJess Raphael   Napa, CA00:00.0 221460  383 SAFEWAY/PureRed Creative/Bicyc
DNPWilliam Owens   Truckee, CA00:00.0 26982  373 Truckee Bicycle Team
DNPDavid Acri   San Francisco00:00.0 233803  360 Audi
DNFNicholas Carlevato   Carson City, NV00:00.0 64351  364 Kinetic Cycles/GBI

Men - Cat1/2/3 - Master - 55-99

 Place Points NameCity, StateTime USAC #BibTeam
1513.48marc hamlin (1 - Cat2)   Hathaway Pines, CA00:00.0 275127  574 Team Bicycles Plus
2536.59Mac Carey   Pleasant Hill, CA00:00.0 249301  570 Taleo Racing
3559.70Scott Phillips (1 - Cat3)   New Canaan, CT00:00.0 145267  573 Taleo Racing
4582.81Steve Grube   Sacramento, CA00:00.0 51158  571 Sacramento Golden Wheelmen
DNPLeon Iannarelli (Cat3)   Vacaville, CA00:00.0 49838  572 Team Precision

Men - Cat 5

 Place Points NameCity, StateTime USAC #BibTeam
1296.85David Grundman   Davis, CA00:00.0 240540  518 Davis Bike Club Race Team
2303.51Travis Lee   Citrus Heights, CA00:00.0 299720  531 Rio Strada Racing
3310.17Michael Fine   Vacaville, CA00:00.0 76882  514 Precision Stone Racing
4316.83Daniel Williams   Fairfield, CA00:00.0 333518  558 Precision Stone Racing
5323.49Michael LaFrenais   Roseville, CA00:00.0 227848  530 Rio Strada Racing
6330.15Christopher Grove   Sacramento, CA00:00.0 332750  517 Body Concepts
7336.81Benjamin Christopher   San Francisco, CA00:00.0 335102  508 Team City
8343.47Erik Jensen   Carmichael, CA00:00.0 334108  528 
9350.13Evan Currie   El Dorado Hills, CA00:00.0 316094  509 Folsom Bike
10356.79Blake James   Clovis, CA00:00.0 326254  526 Vapor
11363.45RON FALLON   Folsom, CA00:00.0 333716  512 
12370.11Nicholas Louis   Auburn, CA00:00.0 315558  532 Chico Corsa
13376.77Todd Allington   Auburn, CA00:00.0 295903  501 Victory Velo/Pro Active Person
14383.43Nathaniel Powell   Antelope, CA00:00.0 288682  543 
15390.09Kevin Keady   Folsom, CA00:00.0 330800  529 Folsom Bike
16396.75Rocky Fletcher   Sacramento , CA00:00.0 324460  515 Rio Strada
17403.41Phil Schmidt   Orangevale, CA00:00.0 334806  547 Victory Velo
18410.07Todd Thiessen   Roseville, CA00:00.0 332008  554 Body Concepts
19416.73CESAR GUILLEN   San Francisco, CA00:00.0 332906  519 
20423.39Manny Canson   Sparks, NV00:00.0 334646  506 Audi Cycling Team
21430.05Keith Griffin   Stockton, CA00:00.0 14170  516 Kinetic Cycles/GBI
22436.71Michael O'Dell   Folsom, CA00:00.0 231563  536 Folsom Bike
23443.37Clinton Hamilton   Auburn, CA00:00.0 333284  520 Victory Velo
24450.03Jeff Tanforan   Orangevale, CA00:00.0 294020  552 Team Bicycles Plus/Sierra Neva
25456.69Marc Trucano   Vacaville, CA00:00.0 332694  555 Precision Stone Racing
26463.35michael hanegan   Rocklin, CA00:00.0 333268  522 Hub
27470.01Mark Stern   Folsom, CA00:00.0 272223  550 Rio Strada Racing
28476.67Craig Maddox   Seattle, WA00:00.0 318506  534 
29483.33Ryan Schiller   Fair Oaks, CA00:00.0 338572  546 
30489.99Patrick Murphy   Folsom, CA00:00.0 301904  502 Team Mad Cat
31496.65Ferdinand Batatan   Yuba City, CA00:00.0 230474  503 Davis Bike Club Race Team
32503.31Steve Hammond   Reno, NV00:00.0 336644  521 Kryki Sports
33509.97Patrick Peters   Davis, CA00:00.0 303960  542 Body Concepts
34516.63Troy Prather   Davis, CA00:00.0 304886  544 Team Mason Thomas
35523.29Tom Tabuso   Antelope, CA00:00.0 333192  551 Rio Strada Racing
36529.95Casey Fallon   Sacramento, CA00:00.0 331532  513 Rio Strada Racing
37536.61Todd Osterberg   Roseville, CA00:00.0 299874  540 NorCal Hub Racing
38543.27Richard Nagel   Vacaville, CA00:00.0 345938  535 
39549.93Lindsay HARDY   Folsom, CA00:00.0 316422  524 
40Dirk HOFHEINZ   00:00.0  525 
41563.25Edgar Tapia   Orangevale, CA00:00.0 331970  553 Folsom Bike
42Branigan SCHOPPMAN   00:00.0  548 
43576.57STUART SCHULTZ   Modesto, CA00:00.0 303832  549 Fun Sport Bikes Cycling Team
44583.23Joshua BOYDEN   Folsom, CA00:00.0 336500  504 
45Mathew CAMPOY   00:00.0  505 
DNPKenneth CURTIS   00:00.0  510 
DNPAlex Chiu   Roseville, CA00:00.0 334166  507 Folsom Bike
DNPJeremy Barnes   Carmichael, CA00:00.0 332918  502 
DNPJohn Proctor   Citrusheights, CA00:00.0 291347  545 Team Bicycles Plus
DNPJason Wagner   Sacramento, CA00:00.0 297789  556 Protek Abruzzo
DNPChristopher Westphal   Sacramento, CA00:00.0 121777  557 Rio Strada
DNPDavid Patterson   San Jose, CA00:00.0 335888  541 Team City
DNPMatt Elam   Sacramento, CA00:00.0 215550  511 Folsom Bike
DNPMichael Harbison   Granite Bay, CA00:00.0 320228  523 Folsom Bike
DNPFelix Jaramillo   Placerville, CA00:00.0 310941  527 Body Concepts
DNPBukie Mabayoje   Hillsboro, OR00:00.0 332662  533 
DNPSteven Oliver   San Francisco, CA00:00.0 250702  537 Mission Cycling
DNPSteven OSBORN   Albuquerque, NM00:00.0 96910  538 
DNPRick OSEN   00:00.0  539 

Men - Cat 4

 Place Points NameCity, StateTime USAC #BibTeam
1187.85Matt Chatlaong   Roseville, CA00:00.0 304797  406 Team City Sacramento
2195.16Ryan Oakes   Chico, CA00:00.0 258824  437 Bicycle Planet
3202.47Charles Potts   Reno, NV00:00.0 291533  457 Kryki Sports
4209.78Matt Tufts   Placerville, CA00:00.0 240212  445 Bicycle Planet
5217.09Nick McGowan   Rohnert Park, CA00:00.0 303653  429 Echelon Gran Fondoteam
6224.40Jeff Watson   Elk Grove, CA00:00.0 293136  447 Team Bicycles Plus/Sierra Neva
7231.71Todd Dambly   Folsom, CA00:00.0 212968  458 Bicycle Planet
8239.02Oliver Weiss   Roseville, CA00:00.0 79603  448 Rio Strada Racing
9246.33James Maltbie   Brentwood , CA00:00.0 271086  456 Contra Costa Cycling Club
10253.64David Nasca   Roseville, CA00:00.0 41192  435 Folsom Bike
11260.95corey duren   Chico, CA00:00.0 320490  410 Chico Corsa
12268.26Mark Fiori   Folsom, CA00:00.0 112253  414 Davis Bike Club
13275.57Morgan Mahanke   El Dorado Hills, CA00:00.0 226577  425 Team Bicycles Plus/Sierra Neva
14282.88Robb Wolf   Reno, NV00:00.0 257141  450 Kinetic Cycles / GBI
15290.19Nathanael Dunn   Fair Oaks, CA00:00.0 290357  409 Rio Strada Racing
16297.50Francis Goldsberry   Sacramento, CA00:00.0 132927  455 Sacramento Golden Wheelmen
17304.81Daniel Pollard   Roseville, CA00:00.0 269166  441 Team Mad Cat
18312.12George Taylor   Napa, CA00:00.0 233608  444 Davis Bike Club
19319.43Timothy Mualchin   Vacaville, CA00:00.0 197634  434 NA
20326.74Steve Bowman   Granite Bay, CA00:00.0 303496  459 Victory Velo
21334.05Adam Lucero   Santa Cruz, CA00:00.0 257679  424 Squadra Ovest Cycling
22341.36zach behrendt   Sacramento, CA00:00.0 312416  404 bicycle chef
23348.67Dustin Mowe   Napa, CA00:00.0 304199  433 Portocork Round Pond Racing
24355.98Jack Arney   Lincoln, CA00:00.0 301427  402 Folsom Bike
25363.29Steve Ball   Napa, CA00:00.0 59338  403 Portocork Round Pond Racing
26370.60Dwayne Halterman   Napa, CA00:00.0 175758  418 Portocork Round Pond Racing
27377.91Erik Nelson   Roseville, CA00:00.0 302958  436 Kinetic Cycles
28385.22Mark Valentino   El Dorado Hills, CA00:00.0 112974  446 Folsom Bike
29392.53Emilio Alvarez   Rutherford, CA00:00.0 306712  401 portocork round pond racing
30399.84Michael White   Folsom, CA00:00.0 299962  449 Team Bicycles Plus/Sierra Neva
31407.15Garth Jackson   Minden, NV00:00.0 247512  453 Alta Alpina Cycling Club
32414.46Jon Keyzer   Fort Collins, CO00:00.0 298334  420 Chico Corsa
33421.77Curt Mills   Gold River, CA00:00.0 299412  431 
34429.08ron faulk   Placerville, CA00:00.0 254588  413 NA
35436.39Parker Childress   Davis, CA00:00.0 225433  407 Davis Bike Club
36443.70Philip Blay   Folsom, CA00:00.0 274756  405 Folsom Bike
37451.01Sean Odom   Carmichael, CA00:00.0 223061  439 Rio Strada Racing
38458.32Christopher Gray   Roseville, CA00:00.0 314142  417 Metromint
39465.63Aaron Marchand   Sacramento, CA00:00.0 289169  426 Health is Wealth
40472.94Brian Pantiga   Folsom, CA00:00.0 61633  440 Bicycle Planet
41480.25Aaron Lombardi   Elk Grove, CA00:00.0 258261  422 Rio Strada Racing
42487.56Craig Martin   Auburn, CA00:00.0 304421  427 Rio Strada Racing
43UNKNOWN RIDER   00:00.0  ??? -------
44502.18Craig Dolley   El Dorado Hills, CA00:00.0 158073  408 Team Bicycles Plus/Sierra Neva
45509.49Robert Smith   Gold River , CA00:00.0 299828  443 Rio Strada Racing
46516.80Gabriel Garroni   Mc Kinney, TX00:00.0 280689  415 Rio Strada
47524.11Anthony Lopipero   Pleasant Hill, CA00:00.0 305627  423 Fremont Bank Cycling
48531.42Christopher Kolm   Moraga, CA00:00.0 254578  421 Taleo Racing
49538.73David Haslemann   Folsom, CA00:00.0 277664  419 Rio Strada Racing
50546.04Anthony ODell   Orangevale, CA00:00.0 287267  438 Bicycle Planet
51553.35ERIC HOUSTON   Antelope, CA00:00.0 284959  452 Sharp's Bicycle
52560.66Will Brickler   Folsom, CA00:00.0 224302  454 Bicycle Planet
53567.97Jeff Mittner   Folsom, CA00:00.0 286671  432 Team Bicycles Plus/Sierra Neva
54575.28Greg Fales   Orangevale, CA00:00.0 275788  412 Team Bicycles Plus/Sierra Neva
55582.59Eddie Sahyoun   Rocklin, CA00:00.0 291352  442 Rio Strada Racing
56589.90Charles McCann   Folsom, CA00:00.0 220709  428 Bicycle Planet
DNPMatthew Esselstrom   Modesto, CA00:00.0 277510  411 Fun Sport Bikes Cycling Team
DNPSean Gilson   Sacramento, CA00:00.0 321722  416 SGW
DNPRobin McKinney   Lincoln, CA00:00.0 276168  430 VictoryVelo
DNPJames Maltbie   Brentwood , CA00:00.0 271086  451 Contra Costa Cycling Club
DNPUNKNOWN RIDER   00:00.0  37 -------
DNPUNKNOWN RIDER   00:00.0  ??? -------

Men - Cat 3

 Place Points NameCity, StateTime USAC #BibTeam
1194.92Steve Thomsen   Reno, NV00:00.0 245436  326 Great Basin Imaging Cycling Te
2197.64Monte Boyle   Simms, MT00:00.0 218669  302 Team Clover
3200.36Nabil Samaan   Fair Oaks, CA00:00.0 177518  322 Kinetic Cycles/gbi
4203.08Michael Boehme   Windsor, CA00:00.0 252576  301 Colavita Racing-Norcal
5205.80Scott Peifer   Granite Bay, CA00:00.0 265877  321 Mercedes Benz/Folsom Bike
6208.52Thomas Dillon   Los Altos Hills, CA00:00.0 50011  329 Peninsula Velo/Pomodoro
7211.24scott heather   Chico, CA00:00.0 306577  332 Chico Corsa Cycling Club
8213.96Kashy Ghazzagh   Santa Rosa, CA00:00.0 295719  309 Red Peloton
9216.68Givargis Betoshana   Ripon, CA00:00.0 55276  341 Fun Sport Bikes Cycling Team
10219.40Jeff Dillon   Folsom, CA00:00.0 9524  331 Bicycle Planet
11222.12Dennis Baker   Sacramento, CA00:00.0 255279  335 Sacramento Golden Wheelmen
12224.84Andre Tenthorey   Granite Bay, CA00:00.0 76561  346 Sacramento Golden Wheelmen
13227.56Ramsey Etchison   Truckee, CA00:00.0 251486  306 Marc Pro - Strava
14UNKNOWN RIDER   00:00.0  ??? -------
15233.00Richard Tabuso   Roseville, CA00:00.0 274439  324 Rio Strada
16235.72Nick Kinney   Windsor, CA00:00.0 255460  314 Whole Athlete/Specialized
17238.44Steve Offerman   Sacramento, CA00:00.0 81992  319 Rio Strada Racing
18241.16Kenny Lane   Citrus Heights, CA00:00.0 274485  339 Rio Strada Racing
19243.88Jason Buckley   Sonoma, CA00:00.0 274029  343 Colavita Racing
20246.60Robert Napieralski   Springville, CA00:00.0 271499  318 Sacramento Golden Wheelmen
21249.32Michael Claudio   West Sacramento, CA00:00.0 248052  305 Davis Bike Club
22252.04William Myers   Carmichael, CA00:00.0 306325  317 Team City
23254.76Kevin Tufts   Cameron Park, CA00:00.0 243434  328 Bicycle Planet
24257.48James Herzman   Truckee, CA00:00.0 207922  340 Great Basin Imaging Cycling Te
25260.20Keith Thompson   Thousand Oaks, CA00:00.0 238330  325 Cal Poly Wheelmen
26262.92Roger Hogan   Fresno, CA00:00.0 285192  342 Momentum Racing California
27265.64Brandon Meadows   Sacramento, CA00:00.0 250736  315 Rio Strada Racing
28268.36Leon Iannarelli   Vacaville, CA00:00.0 49838  330 Precision Stone Racing
29271.08Tyron Hooper   San Francisco, CA00:00.0 251276  345 Fusion Sport USA
30273.80Jonathan Christensen   Clements, CA00:00.0 250315  304 DJs Excavation/Delta Velo
31276.52Greg Tripoli   Hanford, CA00:00.0 281420  327 Momentum Racing
32279.24Mike Brunetti   Escalon, CA00:00.0 273437  303 NA
33281.96Stephen Synhorst   Sacramento, CA00:00.0 234097  344 Sacramento Golden Wheelmen
34284.68Allen Jackson   Sonora, CA00:00.0 260263  312 Wells Fargo Racing Team
35287.40Kirk Evans   Sacramento, CA00:00.0 259534  308 Team Becher
36290.12Cody Kaiser   El Dorado Hills, CA00:00.0 202564  333 California Giant Berry Farms/S
37292.84Michael Painter   Chico Ca00:00.0 289184  320 Chico Corsa Cycling Club
38295.56Mitch Boehs   Livingston, CA00:00.0 237309  336 Sierra Pacific Racing
39298.28Joshua Brand   Sacramento , CA00:00.0 209043  337 Kinetic Cycles/GBI
40301.00Kimberly Fong   Berkeley, CA00:00.0 238713  334 Michael David Winery Cycling T
DNPRyan Ettl   Folsom, CA00:00.0 252994  307 Bicycle Planet
DNPGarrett Hankins   Carmichael, CA00:00.0 298571  310 Team Bicycles Plus/Sierra Neva
DNPscott heather   Chico, CA00:00.0 306577  311 chico corsa
DNPKayden Kelly   Auburn, CA00:00.0 101369  313 Rocknasium
DNPKenneth Mejica   San Francisco, CA00:00.0 254913  316 Team Bicycles Plus Sierra Neva
DNPStar Stevenson   Santa Rosa, CA00:00.0 236074  323 Red Peloton
DNPBob Delp   Folsom, CA00:00.0 9138  338 Folsom Bike

Men - Pro/Cat 1/2

 Place Points NameCity, StateTime USAC #BibTeam
1118.93Collin Samaan (1 - Pro)   Fair Oaks, CA00:00.0 196233  118 Wonderful Pistachios Pro Cycli
2123.27Evan Huffman   El Dorado Hills, CA00:00.0 256955  113 California Giant Berry Farms/S
3127.61Rand Miller (1 - Cat1)   San Francisco, CA00:00.0 182990  131 Alto Velo Racing Club
4131.95Chris Stastny   Vacaville, CA00:00.0 249743  143 California Giant Berry Farms/S
5136.29Christopher Baumann   Sacramento, CA00:00.0 53271  152 Scott Valley Velo
6140.63Hendrik Pohl (2 - Cat1)   San Francisco, CA00:00.0 207753  149 Fusion Sport USA
7UNKNOWN RIDER   00:00.0  ??? -------
8149.31donald hahn (1 - Cat2)   Reno, NV00:00.0 280149  111 Marc Pro-Strava
9153.65Jonathan Eropkin   Fresno, CA00:00.0 197844  135 SAFEWAY/PureRed Creative/Bicyc
10157.99Ryan Gadow (2 - Cat2)   Dublin, CA00:00.0 271417  146 SJBC
11162.33Anthony Ferretti   Oroville, CA00:00.0 283185  108 Chico Corsa
12166.67Brian Johnston (3 - Cat2)   San Francisco, CA00:00.0 237599  133 Audi
13171.01Matthew Obregon (3 - Cat1)   Folsom, CA00:00.0 232613  129 Team Bicycles Plus/Sierra Neva
14175.35Luciano Berry   Sunol, CA00:00.0 192658  145 San Jose Bicycle Club
15179.69AJ Snovel   Sacramento, CA00:00.0 272559  119 Fremont Bank
16184.03Matt Connolly (4 - Cat2)   Sacramento, CA00:00.0 302694  132 Rio Strada Racing
17188.37Scott Fonseca   Fair Oaks, CA00:00.0 204715  109 Zenn Racing Team
18192.71Ruth Winder   Lafayette, CA00:00.0 273081  121 HDR p/b Lomdardi Sports
19197.05Alton Dunnigan   Pleasant Hill, CA00:00.0 157044  107 Bicycle Planet
20201.39Dave Kause   Sacramento, CA00:00.0 175157  114 BELGIUM BIKE / QUICKSTEP NORTH
21205.73Robert Winder (5 - Cat2)   Lafayette, CA00:00.0 220285  120 HDR p/b Lombardi Sports
22210.07Lee Shuemake   Sonora, CA00:00.0 197770  136 Topsport
23214.41Nathan Freed   Tahoe City, CA00:00.0 86484  110 Marc Pro - Strava
24218.75Mark Marquez   Martinez, CA00:00.0 288881  115 Fremont Bank Cycling Team
25223.09Elis Bradshaw (4 - Cat1)   Oakland, CA00:00.0 208125  153 Touchstone Climbing
26227.43Brandon Trafton (5 - Cat1)   Sacramento, CA00:00.0 240033  142 California Giant Berry Farms/S
27231.77Rob Cady   Elk Grove, CA00:00.0 49774  103 Rocknasium
28236.11Sean Smith   Oakland, CA00:00.0 204018  123 Webcor/Alto Velo
29240.45Brian Choi   Folsom, CA00:00.0 52849  104 STUZIO
30244.79John Rickard (6 - Cat1)   Weed, CA00:00.0 51834  117 ETNA BREW / DESALVO
31249.13Mary Elizabeth Maroon (7 - Cat1)   Sacramento, CA00:00.0 219555  122 Webcor/Alto Velo
32253.47Stephen McCaw   Sacramento, CA00:00.0 62322  147 Rocknasium
33257.81Michael Hernandez   Oakland, CA00:00.0 136641  112 Great Basin Imaging/Kinetic Cy
34262.15Jesse Moore   Sacramento, CA00:00.0 204739  139 California Giant Berry Farms/S
35266.49Gregory Gambetta   Sacramento, CA00:00.0 212916  140 Folsom Bike
36270.83Patrick McClurg   Citrus Heights, CA00:00.0 48984  144 Mercedes Benz/Folsom Bike
37275.17Daniel Bryant   Carmichael, CA00:00.0 195929  141 Folsom Bike
38279.51Joshua Bullock   Sacramento, CA00:00.0 153414  102 Chico Corsa/Sierra Nevada
39283.85Jason Grefrath   Sacramento, CA00:00.0 281883  148 Taleo Racing
40288.19Matthew Rozek (6 - Cat2)   Folsom, CA00:00.0 154826  126 Team Bicycles Plus/Sierra Neva
41292.53Dustin Diede   Napa, CA00:00.0 206844  106 Precision Stone Racing
42UNKNOWN RIDER   00:00.0  ??? -------
43301.21David Albrecht   Chico, CA00:00.0 47091  101 Chico Corsa Cycling Team
DNPChad DeMasi (Cat2)   Davis, CA00:00.0 158049  105 Rocknasium
DNPDan Martin   Pleasanton, CA00:00.0 179386  116 SAFEWAY/PureRed Creative/Bicyc
DNPMichael O'Rourke   Auburn, CA00:00.0 204496  124 SAFEWAY/PureRed Creative/Bicyc
DNPJoel Robertson (Cat1)   San Leandro, CA00:00.0 220316  127 Webcor/Alto Velo
DNPJustin Fraga (Cat1)   San Francisco, CA00:00.0 145583  128 Alto Velo Racing Club
DNPMatthew Ream (Cat2)   Verdi, NV00:00.0 211441  130 Great Basin Imaging Cycling Te
DNPMark Sasser   Fresno, CA00:00.0 31332  134 SAFEWAY/PureRed Creative/Bicyc
DNPAndrew Lancashire (Cat2)   Elk Grove, CA00:00.0 218734  138 Great Basin Imaging/Kinetic Cy
DNPChristopher Jones   Bend, OR00:00.0 187300  150 UCI CT: Team Type 1
DNPDylan CLARK   Auburn, CA00:00.0 243069  151 

Women - Cat1/2/3

 Place Points NameCity, StateTime USAC #BibTeam
1128.33Elizabeth Newell   Oakland, CA00:00.0 252152  173 Fremont Bank Cycling Team
2146.16Mary Elizabeth Maroon   Sacramento, CA00:00.0 219555  181 Webcor/Alto Velo
3163.99Ruth Winder   Lafayette, CA00:00.0 273081  180 HDR p/b Lomdardi Sports
4181.82Elis Bradshaw   Oakland, CA00:00.0 208125  170 Touchstone Climbing
5199.65Kimberly Fong   Berkeley, CA00:00.0 238713  184 Michael David Winery Cycling T
6Ruste Parker   00:00.0  177 Velocity
7235.31Beverley McInnes   Carmichael, CA00:00.0 60785  172 Rio Strada
8253.14Carol Irving   Woodland, CA00:00.0 17419  171 Touchstone Climbing
9270.97Katie Stonebraker   Sacramento, CA00:00.0 226927  185 Velo Bella
10288.80Johanna Trueblood   Davis, CA00:00.0 301301  179 Davis Bike Club
11306.63Julie Porter   Auburn, CA00:00.0 176587  186 Velo Bella
12324.46Phyllis Olrich   Grass Valley, CA00:00.0 125288  175 Victory Velo
13342.29Marley Smith   Roseville, CA00:00.0 276961  182 Touchstone Climbing
14360.12Darci Page (1 - Cat3)   Reno, NV00:00.0 232092  176 Reno Wheelmen
15UNKNOWN RIDER   00:00.0  ??? -------
16UNKNOWN RIDER   00:00.0  187 -------
17413.61Ann Stuart   Sacramento, CA00:00.0 250365  178 Touchstone Climbing
18431.44Heather Nielson   Seattle, WA00:00.0 237346  174 Touchstone Climbing
DNPJessica Layman   San Francisco, CA00:00.0 242581  183 Metromint Cycling

Women - Cat 4

 Place Points NameCity, StateTime USAC #BibTeam
1320.11Leslie Creed   Dixon, CA00:00.0 158064  291 Davis Bike Club Race Team
2329.78jennifer gott   New York, NY00:00.0 307839  286 Gotham/Toga
3339.45Kristen Hill   Woodland, CA00:00.0 306378  276 Davis Bike Club Race Team
4349.12Darien Reed   San Francisco, CA00:00.0 338764  290 
5Lisa JAMES   00:00.0  277 
6368.46Heidi Littenberg   Reno, NV00:00.0 286191  281 Lost River Cycling
7378.13June Nguyen   Santa Rosa00:00.0 277526  288 Precision Stone Racing
8387.80Jill Fox   Folsom, CA00:00.0 330926  275 Body Concepts
9397.47Asa Salas   Folsom, CA00:00.0 115370  300 
10407.14Erin Andreatta   New York, NY00:00.0 336602  270 Team Bicycles Plus/Sierra Neva
11416.81Heather Lipana   Folsom, CA00:00.0 333090  280 Rio Strada Racing
12426.48Melissa Diede   Napa, CA00:00.0 306548  273 Precision Stone Racing
13436.15Margaret Winder   Lafayette, CA00:00.0 237600  285 HDR p/b Lombardi Sports
14445.82Jennifer Kruger   Rohnert Park, CA00:00.0 339128  278 Echelon Gran Fondo/Zteam
15455.49Terri Mahannah   Reno, NV00:00.0 333450  287 Unattached
16465.16Maryann Schrupp   Reno, NV00:00.0 288460  283 Team Tibco II
17474.83Sally Takashiba   Folsom, CA00:00.0 332050  284 Body Concepts
18484.50Cynthia Moore   Roseville, CA00:00.0 24891  282 Rio Strada Racing
DNPShantae Barudoni   Folsom, CA00:00.0 339080  271 Team Revolutions
DNPSarah Conover   Auburn, CA00:00.0 334218  272 Victory Velo
DNPMichele Feikert   Davis, CA00:00.0 286411  274 Davis Bike Club Race Team
DNPSherri Lehman   Gold River, CA00:00.0 274098  279 Davis Bike Club Race Team
DNPKristie Hankes   Clovis, CA00:00.0 339342  289 

Report missing or incorrect license numbers

Volkswagen
Bonk BreakerShimanoCUORESierra NevadaSpyUSACDF
UCI USA Cycling is the official governing body for all disciplines of competitive cycling in the United States. The 501c3, membership-based organization aims both to achieve sustained success in international cycling competition and to grow competitive cycling in America while delivering an exceptional customer experience.
View Children's Online Privacy Protection Policy
US Olympic Committee